User: anonymous
Location: Mentone
(34.5413°N, 85.5351°W)
Time: 03:13:02
(UTC-05:00)
Language:

AO-Echo - Orbit

View from above orbital plane
View from above orbital plane
View from above satellite
View from above satellite

Ground track
Ground track

The orbit data is extracted from the following two-line orbital elements,

1 28375U 04025K   14108.08971138  .00000314  00000-0  10609-3 0  8184
2 28375 098.2453 057.0649 0083559 173.2133 187.0209 14.41353530515242
Epoch (UTC): 18 April 2014 02:09:11
Eccentricity: 0.0083559
inclination: 98.2453°
perigee height: 694 km
apogee height: 813 km
right ascension of ascending node: 57.0649°
argument of perigee: 173.2133°
revolutions per day: 14.41353530
mean anomaly at epoch: 187.0209°
orbit number at epoch: 51524

The dashed part of the orbit path shows where the satellite is in the earth's shadow,  

DLR